Regional Weather Roundup
Issued by NWS

Home | Current Version | Previous Version | Graphics & Text | Print | Product List | Glossary On
Versions: 1 2 3 4 5 6 7 8 9 10 11 12 13 14 15 16 17 18 19 20 21 22 23 24 25 26 27 28 29 30 31 32 33 34 35 36 37 38 39 40 41 42 43 44 45 46 47 48 49 50
000
ASUS43 KIND 281509
RWRIN

WEATHER ROUNDUP FOR INDIANA
NATIONAL WEATHER SERVICE INDIANAPOLIS IN
1100 AM EDT THU APR 28 2016

NOTE: "FAIR" INDICATES FEW OR NO CLOUDS BELOW 12,000 FEET WITH NO
SIGNIFICANT WEATHER AND/OR OBSTRUCTIONS TO VISIBILITY.

* - STATION DOES NOT REPORT WEATHER SUCH AS PRECIPITATION OR FOG.

+ - STATION NOT QUALITY CONTROLLED BY THE NATIONAL WEATHER SERVICE.
    USE DATA WITH CAUTION...ESPECIALLY DEWPOINT AND RELATIVE
    HUMIDITY OBSERVATIONS.

INZ001>003-010>013-019-020-281600-
NORTHWEST INDIANA

CITY           SKY/WX    TMP DP  RH WIND       PRES   REMARKS
GARY /AIRPORT/ CLOUDY    50  50 100 SE7       29.86
KNOX *+        CLOUDY    48  41  76 E12       29.85S
LA PORTE +     CLOUDY    48  46  90 E15       29.87R
MICHIGAN CITY+ CLOUDY    46  41  81 SE5       29.87R
MONTICELLO +     N/A    N/A N/A N/A MISG        N/A
RENSSELAER +   CLOUDY    50  46  87 E9        29.85R
VALPARAISO     CLOUDY    48  45  89 E14       29.85R

$$

LMZ046-743>745-281600-
SOUTHERN LAKE MICHIGAN

STATION/POSITION TIME  TEMP    WIND        PRES    WAVE
                       AIR SEA DIR/SP/G            HT
                 (UTC) (F)     (DEG/KT/KT) (MB)    (FT)
BURNS HARBOR     1407   47     110/  7/ 20 1011.2R
MICHIGAN CITY    1400   45     110/  9/ 12   N/A

$$

INZ004-005-014>016-021>024-281600-
NORTH CENTRAL INDIANA

CITY           SKY/WX    TMP DP  RH WIND       PRES   REMARKS
GOSHEN         CLOUDY    47  41  80 E13       29.89R
LOGANSPORT +   CLOUDY    50  43  76 E7        29.86R
PERU/GRISSOM   CLOUDY    50  48  90 E12       29.83R
ROCHESTER +    CLOUDY    50  46  87 E10G18    29.86S
SOUTH BEND     CLOUDY    46  40  79 SE16      29.89S
WARSAW +       CLOUDY    46  41  81 E12       29.89R

$$

INZ006>009-017-018-025>027-281600-
NORTHEAST INDIANA

CITY           SKY/WX    TMP DP  RH WIND       PRES   REMARKS
ANGOLA *+      CLOUDY    43  39  87 E21       29.89R
AUBURN +       CLOUDY    45  41  87 E12G20    29.88S
FORT WAYNE     CLOUDY    46  43  89 E15G24    29.88R
HUNTINGTON +   CLOUDY    47  44  88 E12G17    29.87R

$$

INZ028-029-035-036-043>045-051>053-281600-
WEST CENTRAL INDIANA

CITY           SKY/WX    TMP DP  RH WIND       PRES   REMARKS
CRAWFORDSVL +  PTSUNNY   59  58  97 SE6       29.81S
GREENCASTLE +  PTSUNNY   64  61  88 S5        29.81S
LAFAYETTE      CLOUDY    52  49  89 SE7       29.82S FOG
TERRE HAUTE    MOSUNNY   68  60  75 S9        29.79F

$$

INZ030>032-037>040-046>048-054>057-064-065-281600-
CENTRAL INDIANA

CITY           SKY/WX    TMP DP  RH WIND       PRES   REMARKS
ANDERSON       CLOUDY    55  54  94 E7        29.84R
CP ATTERBURY + SUNNY     64  59  82 SE3       29.81S
COLUMBUS       MOSUNNY   63  63 100 S6        29.81S
FRANKFORT +      N/A     53  53 100 CALM      29.84R FOG
GREENWOOD *+   SUNNY     64  59  82 SE7       29.81S
INDIANAPOLIS   PTSUNNY   60  56  86 CALM      29.80R
-EAGLE CREEK   CLOUDY    58  55  90 SE8       29.80S
KOKOMO *+      CLOUDY    52  45  76 E10G16    29.84R
MARION +       CLOUDY    50  47  88 E9        29.85R FOG
SHELBYVILLE    MOSUNNY   65  57  75 S8        29.80S
ZIONSVILLE +   CLOUDY    55  54  95 SE5       29.82S FOG

$$

INZ033-034-041-042-049-050-058-059-281600-
EAST CENTRAL INDIANA

CITY           SKY/WX    TMP DP  RH WIND       PRES   REMARKS
MUNCIE         CLOUDY    54  49  83 E10       29.83R

$$

INZ060-061-067>069-081>083-085>088-281600-
SOUTHWEST INDIANA

CITY           SKY/WX    TMP DP  RH WIND       PRES   REMARKS
EVANSVILLE     SUNNY     69  59  70 SW6       29.84R
HUNTINGBURG *+ CLOUDY    68  61  77 SW10      29.84R
WASHINGTON +   CLOUDY    67  65  95 SW7       29.82R

$$

INZ062-063-066-070>080-084-089>092-281600-
SOUTH CENTRAL AND SOUTHEAST INDIANA

CITY           SKY/WX    TMP DP  RH WIND       PRES   REMARKS
BLOOMINGTON    CLOUDY    67  61  81 S7        29.81R
MADISON *+     CLOUDY    64  61  88 CALM      29.85R
SEYMOUR +      CLOUDY    66  63  88 NE3       29.82R

$$





USA.gov is the U.S. government's official web portal to all federal, state and local government web resources and services.